User: anonymous   Login
Location: Vancouver
(49.2500°N, 123.1330°W)
Time: 11:15:49
(UTC-08:00)
Language:

Cosmos 1340 Rocket - Orbit

View from above orbital plane
View from above orbital plane
View from above satellite
View from above satellite

Ground track
Ground track

The orbit data is extracted from the following two-line orbital elements,

1 13068U 82013B   17017.16311965 -.00000185  00000-0 -13987-4 0  9998
2 13068  81.2014  34.8620 0023738  95.2648 265.1285 15.06811073900758
Epoch (UTC): 17 January 2017 03:54:53
Eccentricity: 0.0023738
inclination: 81.2014°
perigee height: 529 km
apogee height: 562 km
right ascension of ascending node: 34.8620°
argument of perigee: 95.2648°
revolutions per day: 15.06811073
mean anomaly at epoch: 265.1285°
orbit number at epoch: 90075

The dashed part of the orbit path shows where the satellite is in the earth's shadow,  

DLR